Regional Weather Roundup
Issued by NWS Upton, NY

Current Version | Previous Version | Graphics & Text | Print | Product List | Glossary Off
Versions: 1 2 3 4 5 6 7 8 9 10 11 12 13 14 15 16 17 18 19 20 21 22 23 24 25 26 27 28 29 30 31 32 33 34 35 36 37 38 39 40 41 42 43 44 45 46 47 48 49

000
ASUS41 KOKX 031704
RWROKX

REGIONAL WEATHER ROUNDUP
NATIONAL WEATHER SERVICE NEW YORK NY
100 PM EDT MON AUG 03 2015

NOTE: "FAIR" INDICATES FEW OR NO CLOUDS BELOW 12,000 FEET WITH NO
SIGNIFICANT WEATHER AND/OR OBSTRUCTIONS TO VISIBILITY.

NYZ071-072-176-178-NJZ106-104-031800-
NEW YORK CITY METRO AREA


CITY           SKY/WX    TMP DP  RH WIND       PRES   REMARKS
CENTRAL PARK   SUNNY     88  63  43 SW8       29.84F
LAGUARDIA APRT MOSUNNY   88  59  37 SW16G25   29.81F
KENNEDY INTL   MOSUNNY   86  66  51 S12       29.84F
NEWARK/LIBERTY MOSUNNY   88  60  38 SW13G25   29.81F
BRNX BOT. GARD   N/A     86  63  45 SW9       29.82F
TETERBORO      SUNNY     91  60  35 S14G23    29.80F HX  90
$$

NYZ177-179-078>081-031800-
LONG ISLAND NEW YORK

CITY           SKY/WX    TMP DP  RH WIND       PRES   REMARKS
FARMINGDALE    SUNNY     86  63  45 S17       29.84F
ISLIP          MOSUNNY   87  61  41 SW13G23   29.83F
SHIRLEY        SUNNY     87  60  40 SW16G22   29.85F
WESTHAMPTON    SUNNY     85  63  47 SW13G22   29.86F
MONTAUK POINT    N/A     83  71  67 S8        29.87F
$$

NYZ052-065-067-031800-
HUDSON VALLEY

CITY           SKY/WX    TMP DP  RH WIND       PRES   REMARKS
WHITE PLAINS   MOSUNNY   86  61  42 VRB3G17   29.82F
NEWBURGH       MOSUNNY   88  61  40 SW14G25   29.81F
MONTGOMERY     SUNNY     90  60  36 SW18G30   29.79F
POUGHKEEPSIE   MOSUNNY   90  59  35 S13G20    29.77F
ALBANY         PTSUNNY   88  62  41 SE12G22   29.73F
$$

NJZ001-105-106-008-010-013-015-019>022-104-031800-
NEW JERSEY

CITY           SKY/WX    TMP DP  RH WIND       PRES   REMARKS
NEWARK/LIBERTY MOSUNNY   88  60  38 SW13G25   29.81F
TETERBORO      SUNNY     91  60  35 S14G23    29.80F HX  90
CALDWELL       SUNNY     88  60  38 SW12G18   29.81F
MORRISTOWN     MOSUNNY   90  61  37 SW16G24   29.82F
SOMERVILLE     SUNNY     88  62  41 S10G20    29.80F
SUSSEX         SUNNY     84  63  49 S10       29.81F
ANDOVER          N/A     83  64  52 SW12      29.83F
TRENTON        PTSUNNY   86  61  42 VRB6G17   29.83F
MILLVILLE      SUNNY     88  63  43 SW8G16    29.86F
ATLANTIC CITY  SUNNY     88  61  40 W14G21    29.85F
WRIGHTSTOWN    NOT AVBL
TOMS RIVER       N/A     90  61  37 SW16      29.84F
BELMAR         SUNNY     88  61  40 W8G16     29.84F
$$

PAZ047>061-062-071-031800-
EASTERN PENNSYLVANIA

CITY           SKY/WX    TMP DP  RH WIND       PRES   REMARKS
PHILADELPHIA   MOSUNNY   88  61  40 SW15      29.85F
ALLENTOWN      MOSUNNY   87  64  46 SW15G21   29.81F
SCRANTON       SUNNY     86  61  42 SW8       29.80F
$$

CTZ002-004>006-009-010-012-RIZ004-006-007-MAZ004-011-015-031800-
SOUTHERN NEW ENGLAND
 IN CT

CITY           SKY/WX    TMP DP  RH WIND       PRES   REMARKS
BRADLEY INTL   MOSUNNY   88  62  41 S17G26    29.79F
HARTFORD       SUNNY     88  62  41 S13G18    29.80F
DANBURY        SUNNY     85  61  44 SW15      29.83F
WTRBRY/OXFORD  NOT AVBL
BRIDGEPORT     SUNNY     87  62  43 S14       29.83F
MERIDEN        SUNNY     90  58  33 S9G21     29.82F
NEW HAVEN      SUNNY     83  63  50 SW9       29.83F
CHESTER        FAIR      82  61  47 SW10G17   29.86F
GROTON         SUNNY     80  67  64 S7        29.84F
WILLIMANTIC    SUNNY     88  60  38 SW14G23   29.82F

 IN RI

CITY           SKY/WX    TMP DP  RH WIND       PRES   REMARKS
PROVIDENCE     MOSUNNY   88  58  36 S15       29.84F
BLOCK ISLAND     N/A     81  75  83 S14       29.89S
WESTERLY       SUNNY     81  68  64 S13       29.87S

 IN MA

CITY           SKY/WX    TMP DP  RH WIND       PRES   REMARKS
BOSTON         MOSUNNY   88  60  38 S20G25    29.80F
WORCESTER      MOSUNNY   83  61  47 S17G24    29.85F
WESTFIELD      SUNNY     88  61  40 S22G28    29.78F
PROVINCETOWN   SUNNY     84  64  51 SW15      29.86F
NANTUCKET      SUNNY     80  72  76 S13       29.89F
$$

ANZ330-335-338-340-345-350-353-355-031800-
COASTAL MARINE OBSERVATIONS


STATION/POSITION TIME  SKY/WX   TEMP    WIND        PRES    VSBY  WAVE
                                AIR SEA DIR/SP/G                  HT/PER
                 (UTC)          (F)     (DEG/KT/KT) (MB)    (MI)  (FT/S)
NY HARB ENTRANCE 1550            78 72  200/ 14/ 16 1010.5          3/ 8
4S FIRE IS       NOT AVBL
20S FIRE ISLAND  1550            77 76  210/ 12/ 14 1011.0          3/ 8
GREAT SOUTH BAY  1600            78 81  240/ 10/ 14   N/A
23SW MTP         1650            76 76  220/  8/  8 1011.1          3/ 9
HUDSON CANYON    NOT AVBL
KINGS POINT      1600            81 70  210/ 12/ 16 1009.8
EXECUTION ROCKS  1600            79     200/  6/  8   N/A
CENTRAL LI SOUND NOT AVBL
EASTERN LI SOUND 1600            75 69  200/  6/  8   N/A
ROBBINS REEF     1600            83     220/ 14/ 17 1009.2
$$


>>>>>>>>>>>>>>>>>>>>>>>>>>>> KEY <<<<<<<<<<<<<<<<<<<<<<<<<<<
>                                                          <
>     SKY/WX - SKY CONDITION/PRESENT WEATHER               <
>     TMP    - TEMPERATURE IN FAHRENHEIT                   <
>     DP     - DEWPOINT IN FAHRENHEIT                      <
>     RH     - RELATIVE HUMIDITY IN PERCENT                <
>     WIND   - DIRECTION AND SPEED IN MPH                  <
>     PRES   - MEAN SEA LEVEL PRESSURE IN INCHES OF HG     <
>     WCI    - WIND CHILL INDEX                            <
>     VSB    - VISIBILITY IN MILES                         <
>     HX     - HEAT INDEX                                  <
>     TC     - TEMPERATURE IN CELSIUS                      <
>     VRB    - VARIABLE WIND DIRECTION                     <
>                                                          <
>>>>>>>>>>>>>>>>>>>>>>>>>>>> KEY <<<<<<<<<<<<<<<<<<<<<<<<<<<





USA.gov is the U.S. government's official web portal to all federal, state and local government web resources and services.